• In Uzbekistan
  • List of Countries
  • For 7 days
  • Water Temperature
  • Satellite Maps
  • Weather Map
  • Weather Widgets
  • user-avatar
    Login

    Hourly Weather Kananga

    Today, 20 June, Wednesday

    Time Temperature Precipitation Wind Pressure Humidity
    00:00 +21°C° 0 mm 1 mps 706 mmHg 97%
    01:00 +20°C° 0 mm 1 mps 706 mmHg 98%
    02:00 +20°C° 0 mm 1 mps 706 mmHg 97%
    03:00 +21°C° 0 mm 1 mps 706 mmHg 96%
    04:00 +21°C° 0 mm 1 mps 706 mmHg 96%
    05:00 +22°C° 0 mm 1 mps 707 mmHg 91%
    06:00 +23°C° 0 mm 1 mps 707 mmHg 85%
    07:00 +25°C° 0 mm 1 mps 708 mmHg 78%
    08:00 +27°C° 0 mm 1 mps 708 mmHg 68%
    09:00 +29°C° 0 mm 2 mps 708 mmHg 59%
    10:00 +31°C° 0 mm 2 mps 708 mmHg 50%
    11:00 +31°C° 0 mm 2 mps 708 mmHg 48%
    12:00 +32°C° 0 mm 2 mps 707 mmHg 45%
    13:00 +32°C° 0 mm 2 mps 707 mmHg 43%
    14:00 +32°C° 0 mm 2 mps 706 mmHg 46%
    15:00 +31°C° 0 mm 1 mps 706 mmHg 48%
    16:00 +31°C° 0 mm 1 mps 706 mmHg 51%
    17:00 +29°C° 0 mm 1 mps 706 mmHg 55%
    18:00 +28°C° 0 mm 1 mps 706 mmHg 60%
    19:00 +26°C° 0 mm 1 mps 706 mmHg 65%
    20:00 +24°C° 0.1 mm 0 mps 707 mmHg 67%
    21:00 +23°C° 0.1 mm 0 mps 707 mmHg 70%
    22:00 +23°C° 0.1 mm 0 mps 708 mmHg 73%
    23:00 +22°C° 0.5 mm 0 mps 707 mmHg 79%

    Tomorrow, 21 June, Thursday

    Time Temperature Precipitation Wind Pressure Humidity
    00:00 +21°C° 0.5 mm 0 mps 707 mmHg 84%
    01:00 +22°C° 0.5 mm 1 mps 707 mmHg 90%
    02:00 +22°C° 0.1 mm 1 mps 707 mmHg 91%
    03:00 +22°C° 0.1 mm 1 mps 707 mmHg 92%
    04:00 +22°C° 0.1 mm 1 mps 707 mmHg 94%
    05:00 +22°C° 0.1 mm 1 mps 707 mmHg 93%
    06:00 +23°C° 0.1 mm 1 mps 708 mmHg 93%
    07:00 +23°C° 0.1 mm 1 mps 708 mmHg 92%
    08:00 +25°C° 0.5 mm 1 mps 708 mmHg 87%
    09:00 +26°C° 0.5 mm 1 mps 708 mmHg 81%
    10:00 +28°C° 0.5 mm 1 mps 709 mmHg 76%
    11:00 +29°C° 0.8 mm 1 mps 708 mmHg 71%
    12:00 +29°C° 0.8 mm 1 mps 708 mmHg 66%
    13:00 +30°C° 0.8 mm 2 mps 708 mmHg 62%
    14:00 +29°C° 0.9 mm 2 mps 707 mmHg 68%
    15:00 +28°C° 0.9 mm 2 mps 707 mmHg 74%
    16:00 +27°C° 0.9 mm 2 mps 706 mmHg 80%
    17:00 +26°C° 1.3 mm 1 mps 706 mmHg 84%
    18:00 +24°C° 1.3 mm 1 mps 706 mmHg 89%
    19:00 +23°C° 1.3 mm 1 mps 707 mmHg 93%
    20:00 +23°C° 0.3 mm 1 mps 707 mmHg 93%
    21:00 +22°C° 0.3 mm 1 mps 707 mmHg 94%
    22:00 +20°C° 0.3 mm 0 mps 708 mmHg 94%
    23:00 +20°C° 0.3 mm 0 mps 707 mmHg 94%

    Day after tomorrow, 22 June, Friday

    Time Temperature Precipitation Wind Pressure Humidity
    00:00 +20°C° 0.3 mm 0 mps 707 mmHg 95%
    01:00 +20°C° 0.3 mm 0 mps 707 mmHg 95%
    02:00 +19°C° 0 mm 0 mps 707 mmHg 95%
    03:00 +19°C° 0 mm 0 mps 707 mmHg 95%
    04:00 +19°C° 0 mm 0 mps 706 mmHg 96%
    05:00 +20°C° 0.1 mm 0 mps 707 mmHg 94%
    06:00 +21°C° 0.1 mm 0 mps 707 mmHg 92%
    07:00 +22°C° 0.1 mm 0 mps 708 mmHg 90%
    08:00 +24°C° 0.2 mm 0 mps 708 mmHg 78%
    09:00 +28°C° 0.2 mm 1 mps 709 mmHg 67%
    10:00 +31°C° 0.2 mm 1 mps 710 mmHg 55%
    11:00 +30°C° 0.6 mm 1 mps 709 mmHg 59%
    12:00 +30°C° 0.6 mm 1 mps 708 mmHg 63%
    13:00 +29°C° 0.6 mm 2 mps 707 mmHg 66%
    14:00 +28°C° 1.8 mm 2 mps 706 mmHg 73%
    15:00 +27°C° 1.8 mm 2 mps 706 mmHg 79%
    16:00 +26°C° 1.8 mm 1 mps 705 mmHg 86%
    17:00 +25°C° 1.6 mm 1 mps 706 mmHg 89%
    18:00 +24°C° 1.6 mm 1 mps 706 mmHg 92%
    19:00 +22°C° 1.6 mm 1 mps 707 mmHg 95%
    20:00 +22°C° 0.1 mm 1 mps 707 mmHg 95%
    21:00 +22°C° 0.1 mm 1 mps 707 mmHg 96%
    22:00 +22°C° 0.1 mm 1 mps 707 mmHg 96%
    23:00 +21°C° 0 mm 1 mps 707 mmHg 96%

    23 June, Saturday

    Time Temperature Precipitation Wind Pressure Humidity
    00:00 +21°C° 0 mm 1 mps 706 mmHg 97%
    01:00 +21°C° 0 mm 1 mps 706 mmHg 97%
    02:00 +21°C° 0 mm 1 mps 706 mmHg 97%
    03:00 +21°C° 0 mm 1 mps 706 mmHg 98%
    04:00 +20°C° 0 mm 1 mps 706 mmHg 98%
    05:00 +21°C° 0 mm 1 mps 707 mmHg 96%
    06:00 +22°C° 0 mm 1 mps 707 mmHg 94%
    07:00 +21°C° 0 mm 0 mps 708 mmHg 92%
    08:00 +25°C° 0 mm 1 mps 708 mmHg 80%
    09:00 +28°C° 0 mm 1 mps 708 mmHg 67%
    10:00 +31°C° 0 mm 2 mps 709 mmHg 55%
    11:00 +32°C° 0.2 mm 2 mps 708 mmHg 51%
    12:00 +32°C° 0.2 mm 2 mps 707 mmHg 47%
    13:00 +33°C° 0.2 mm 1 mps 706 mmHg 43%
    14:00 +32°C° 0 mm 1 mps 706 mmHg 48%
    15:00 +31°C° 0 mm 1 mps 705 mmHg 52%
    16:00 +31°C° 0 mm 1 mps 705 mmHg 57%
    17:00 +28°C° 1.2 mm 1 mps 705 mmHg 67%
    18:00 +26°C° 1.2 mm 1 mps 705 mmHg 77%
    19:00 +24°C° 1.2 mm 1 mps 705 mmHg 87%
    20:00 +23°C° 0.3 mm 1 mps 705 mmHg 88%
    21:00 +23°C° 0.3 mm 1 mps 706 mmHg 90%
    22:00 +23°C° 0.3 mm 1 mps 706 mmHg 92%
    23:00 +22°C° 0 mm 1 mps 705 mmHg 92%

    24 June, Sunday

    Time Temperature Precipitation Wind Pressure Humidity
    00:00 +22°C° 0 mm 1 mps 705 mmHg 92%
    01:00 +22°C° 0 mm 1 mps 704 mmHg 93%
    02:00 +22°C° 0 mm 1 mps 704 mmHg 93%
    03:00 +21°C° 0 mm 1 mps 704 mmHg 94%
    04:00 +21°C° 0 mm 1 mps 704 mmHg 94%
    05:00 +22°C° 0.3 mm 1 mps 705 mmHg 92%
    06:00 +23°C° 0.3 mm 1 mps 706 mmHg 91%
    07:00 +24°C° 0.3 mm 1 mps 707 mmHg 89%
    08:00 +26°C° 0.6 mm 1 mps 707 mmHg 81%
    09:00 +28°C° 0.6 mm 2 mps 707 mmHg 73%
    10:00 +30°C° 0.6 mm 2 mps 707 mmHg 65%
    11:00 +30°C° 0.7 mm 2 mps 707 mmHg 63%
    12:00 +30°C° 0.7 mm 2 mps 706 mmHg 61%
    13:00 +31°C° 0.7 mm 2 mps 705 mmHg 59%
    14:00 +31°C° 0.1 mm 2 mps 705 mmHg 57%
    15:00 +31°C° 0.1 mm 2 mps 705 mmHg 55%
    16:00 +31°C° 0.1 mm 2 mps 705 mmHg 53%
    17:00 +29°C° 0.2 mm 1 mps 705 mmHg 61%
    18:00 +27°C° 0.2 mm 1 mps 705 mmHg 69%
    19:00 +25°C° 0.2 mm 1 mps 706 mmHg 77%
    20:00 +24°C° 0.3 mm 1 mps 706 mmHg 81%
    21:00 +23°C° 0.3 mm 1 mps 706 mmHg 85%
    22:00 +23°C° 0.3 mm 1 mps 706 mmHg 89%
    23:00 +22°C° 0.1 mm 1 mps 706 mmHg 90%

    25 June, Monday

    Time Temperature Precipitation Wind Pressure Humidity
    00:00 +22°C° 0.1 mm 1 mps 705 mmHg 92%
    01:00 +22°C° 0.1 mm 1 mps 705 mmHg 94%
    02:00 +21°C° 0 mm 1 mps 705 mmHg 94%
    03:00 +21°C° 0 mm 1 mps 705 mmHg 95%
    04:00 +21°C° 0 mm 1 mps 705 mmHg 95%
    05:00 +22°C° 0 mm 1 mps 706 mmHg 92%
    06:00 +23°C° 0 mm 1 mps 706 mmHg 88%
    07:00 +22°C° 0 mm 0 mps 707 mmHg 84%
    08:00 +27°C° 0.3 mm 1 mps 707 mmHg 74%
    09:00 +29°C° 0.3 mm 1 mps 707 mmHg 63%
    10:00 +31°C° 0.3 mm 2 mps 707 mmHg 53%
    11:00 +32°C° 0.2 mm 2 mps 707 mmHg 51%
    12:00 +32°C° 0.2 mm 2 mps 706 mmHg 49%
    13:00 +33°C° 0.2 mm 3 mps 705 mmHg 47%
    14:00 +32°C° 0 mm 2 mps 705 mmHg 48%
    15:00 +32°C° 0 mm 2 mps 705 mmHg 50%
    16:00 +32°C° 0 mm 2 mps 704 mmHg 51%
    17:00 +29°C° 0.4 mm 2 mps 705 mmHg 61%
    18:00 +27°C° 0.4 mm 1 mps 705 mmHg 70%
    19:00 +25°C° 0.4 mm 1 mps 705 mmHg 80%
    20:00 +24°C° 0.1 mm 1 mps 705 mmHg 82%
    21:00 +24°C° 0.1 mm 1 mps 705 mmHg 84%
    22:00 +23°C° 0.1 mm 1 mps 705 mmHg 87%
    23:00 +23°C° 0 mm 1 mps 705 mmHg 88%
    Show more